This demonstration page uses our WeatherBlox Daily Observations layout. Learn more.

Left ArrowRight Arrow

Hourly Observations for March 20, 2022

Temp ( °F °C ) Dew Point ( °F °C ) Humidity (%) Winds ( mph kmh ) Pressure ( in mb ) Visibility ( mi km ) Precip ( " mm )
12:56 am 00:56 Clear 43 6.1 21 -6.1 42 42 SSW 7 11 29.98 1015 10 16 0.00 0.00
1:56 am 01:56 Clear 44 6.7 22 -5.6 41 41 SSW 13 20 29.98 1015 10 16 0.00 0.00
2:56 am 02:56 Clear 43 6.1 23 -5 45 45 SSW 12 19 29.98 1015 10 16 0.00 0.00
3:56 am 03:56 Clear 43 6.1 23 -5 45 45 SSW 12 19 29.97 1015 10 16 0.00 0.00
4:56 am 04:56 Clear 40 4.4 23 -5 51 51 SSW 10 17 29.97 1015 10 16 0.00 0.00
5:56 am 05:56 Clear 38 3.3 23 -5 55 55 SSW 7 11 29.97 1015 10 16 0.00 0.00
6:56 am 06:56 Clear 39 3.9 25 -3.9 57 57 SSW 7 11 29.96 1015 10 16 0.00 0.00
7:56 am 07:56 Sunny 40 4.4 26 -3.3 58 58 S 7 11 29.96 1015 10 16 0.00 0.00
8:56 am 08:56 Sunny 47 8.3 27 -2.8 46 46 S 13 20 29.94 1014 10 16 0.00 0.00
9:56 am 09:56 Sunny 55 12.8 27 -2.8 34 34 SSE 22 35 29.90 1013 10 16 0.00 0.00
10:56 am 10:56 Sunny 61 16.1 27 -2.8 27 27 S 28 44 29.87 1012 10 16 0.00 0.00
11:56 am 11:56 Sunny 65 18.3 27 -2.8 24 24 SSE 24 39 29.84 1011 10 16 0.00 0.00
12:56 pm 12:56 Sunny 70 21.1 26 -3.3 19 19 S 22 35 29.81 1010 10 16 0.00 0.00
1:56 pm 13:56 Sunny 73 22.8 25 -3.9 17 17 S 26 43 29.77 1008 10 16 0.00 0.00
2:56 pm 14:56 Sunny 75 23.9 24 -4.4 15 15 SSW 26 43 29.75 1007 10 16 0.00 0.00
3:56 pm 15:56 Sunny 77 25 23 -5 13 13 S 28 44 29.71 1006 10 16 0.00 0.00
4:56 pm 16:56 Sunny 77 25 22 -5.6 13 13 SSW 28 44 29.70 1006 10 16 0.00 0.00
5:56 pm 17:56 Sunny 75 23.9 22 -5.6 14 14 SSW 26 43 29.68 1005 10 16 0.00 0.00
6:56 pm 18:56 Sunny 73 22.8 22 -5.6 15 15 SSW 20 31 29.70 1006 10 16 0.00 0.00
7:56 pm 19:56 Clear 67 19.4 30 -1.1 25 25 S 14 22 29.72 1007 10 16 0.00 0.00
8:56 pm 20:56 Clear 62 16.7 29 -1.7 29 29 SSE 12 19 29.71 1006 10 16 0.00 0.00
9:56 pm 21:56 Clear 59 15 29 -1.7 32 32 SSE 15 24 29.71 1006 10 16 0.00 0.00
10:56 pm 22:56 Clear 59 15 29 -1.7 32 32 SSE 15 24 29.70 1006 10 16 0.00 0.00
11:56 pm 23:56 Clear 57 13.9 29 -1.7 34 34 S 18 30 29.70 1006 10 16 0.00 0.00

Powered by AerisWeather